sat.trackr.live / text

‹ back to catalog

BANDWAGON-2 OBJECT L

NORAD 62387 · 2024-247L

PAYLOAD ACTIVE UNKNOWN

§ Identity

Operator
Country
TBD
Launch date
2024-12-21
Launch site
AFWTR
Launch vehicle
Mass (kg)
RCS (m²)

External: N2YO · Heavens-Above · Gunter

§ Orbital elements

Epoch: 2026-05-25T00:16:54.444000Z

Period
92.85 min
Inclination
44.9920°
Eccentricity
0.0007616
Mean motion
15.50941763 rev/d
Perigee alt
408.8 km
Apogee alt
419.1 km
Semi-major
6,792.1 km
B*
7.1173e-4
RAAN
20.0515°
Arg perigee
176.9482°
Mean anomaly
183.1458°
Rev number
7,988

§ Raw data

BANDWAGON-2 OBJECT L1 62387U 24247L   26145.01174125  .00042110  00000+0  71173-3 0  99932 62387  44.9920  20.0515 0007616 176.9482 183.1458 15.50941763 79889

JSON: /api/v1/satellites/62387 · /tle

For live sub-satellite position, see the globe view (requires WebGL).

§ Visibility from observer

Set your observer location to see the next 7 days of passes ≥ 10°. The values pass through the URL so the page stays shareable.

No JS? Fill the form by hand. The geolocation button needs JavaScript.